Weather History for Fergus Falls, MN

Change the Weather History Date:

Wednesday, October 10, 2012

  Actual Average Record
Temperature  
Mean Temperature 36 °F -  
Max Temperature 50 °F 56 °F 84 °F (1955)
Min Temperature 23 °F 36 °F 20 °F (1970)
Degree Days  
Heating Degree Days 28    
Moisture  
Dew Point 26 °F    
Average Humidity 68    
Maximum Humidity 100    
Minimum Humidity 30    
Precipitation  
Precipitation 0.00 in - - ()
Sea Level Pressure  
Sea Level Pressure 29.97 in    
Wind  
Wind Speed 6 mph (SW)    
Max Wind Speed 14 mph    
Max Gust Speed 25 mph    
Visibility 10 miles    
Events Rain    
Averages and records for this station are not official NWS values.
T = Trace of Precipitation, MM = Missing Value Source: NWS Daily Summary

Daily Weather History Graph

Daily Weather History Graph

Search for Another Location

Airport:

Trip Planner

Search our weather history database for the weather conditions in past years. The results will help you decide how hot, cold, wet, or windy it might be!

Date:

Astronomy

Oct. 10, 2012 Rise Set
Actual Time 7:35 AM CDT 6:46 PM CDT
Civil Twilight 7:05 AM CDT 7:16 PM CDT
Nautical Twilight 6:30 AM CDT 7:51 PM CDT
Astronomical Twilight 5:55 AM CDT 8:26 PM CDT
Moon 1:56 AM CDT (10/10) 4:04 PM CDT (10/10)
Length of Visible Light 12h 10m
Length of Day
11h 10m
Waning Crescent, 27% of the Moon is Illuminated
Oct 10
Waning Crescent
Oct 15
New
Oct 21
First Quarter
Oct 29
Full
Nov 6
Last Quarter

Hourly Weather History & Observations

Time (CDT) Temp. Windchill Dew Point Humidity Pressure Visibility Wind Dir Wind Speed Gust Speed Precip Events Conditions
12:13 AM 28.4 °F 21.2 °F 23.0 °F 80% 30.05 in 10.0 mi WNW 6.9 mph - N/A   Clear
12:33 AM 28.4 °F 21.2 °F 23.0 °F 80% 30.05 in 10.0 mi WNW 6.9 mph - N/A   Scattered Clouds
12:54 AM 28.4 °F 22.2 °F 23.0 °F 80% 30.05 in 10.0 mi WNW 5.8 mph - N/A   Scattered Clouds
1:13 AM 26.6 °F 19.1 °F 23.0 °F 86% 30.05 in 10.0 mi WNW 6.9 mph - N/A   Clear
1:33 AM 26.6 °F 20.0 °F 24.8 °F 93% 30.05 in 10.0 mi WNW 5.8 mph - N/A   Clear
1:54 AM 26.6 °F 20.0 °F 24.8 °F 93% 30.06 in 10.0 mi WNW 5.8 mph - N/A   Clear
2:13 AM 26.6 °F 20.0 °F 24.8 °F 93% 30.06 in 10.0 mi NW 5.8 mph - N/A   Clear
2:33 AM 26.6 °F 20.0 °F 23.0 °F 86% 30.06 in 10.0 mi WNW 5.8 mph - N/A   Clear
2:54 AM 26.6 °F 21.2 °F 24.8 °F 93% 30.06 in 10.0 mi NW 4.6 mph - N/A   Clear
3:13 AM 26.6 °F 20.0 °F 24.8 °F 93% 30.06 in 10.0 mi WNW 5.8 mph - N/A   Clear
3:33 AM 26.6 °F 22.6 °F 24.8 °F 93% 30.06 in 10.0 mi NNW 3.5 mph - N/A   Clear
3:54 AM 24.8 °F 20.5 °F 23.0 °F 93% 30.06 in 10.0 mi NW 3.5 mph - N/A   Clear
4:13 AM 26.6 °F 22.6 °F 24.8 °F 93% 30.06 in 10.0 mi WNW 3.5 mph - N/A   Clear
4:33 AM 26.6 °F - 26.6 °F 100% 30.06 in 10.0 mi Calm Calm - N/A   Clear
4:54 AM 24.8 °F - 24.8 °F 100% 30.06 in 10.0 mi Calm Calm - N/A   Clear
5:13 AM 26.6 °F - 24.8 °F 93% 30.06 in 10.0 mi Calm Calm - N/A   Clear
5:33 AM 26.6 °F - 26.6 °F 100% 30.06 in 10.0 mi Calm Calm - N/A   Clear
5:54 AM 24.8 °F - 23.0 °F 93% 30.07 in 10.0 mi Calm Calm - N/A   Clear
6:13 AM 23.0 °F 18.4 °F 23.0 °F 100% 30.07 in 2.5 mi SSE 3.5 mph - N/A   Scattered Clouds
6:33 AM 23.0 °F 18.4 °F 21.2 °F 93% 30.08 in 1.8 mi South 3.5 mph - N/A   Mostly Cloudy
6:53 AM 24.8 °F 19.1 °F 24.8 °F 100% 30.08 in 2.0 mi SSE 4.6 mph - N/A   Overcast
7:33 AM 23.0 °F 18.4 °F 23.0 °F 100% 30.08 in 10.0 mi SSE 3.5 mph - N/A   Clear
7:53 AM 23.0 °F 15.8 °F 21.2 °F 93% 30.08 in - SSE 5.8 mph - N/A   Unknown
8:13 AM - - - N/A% 30.04 in - SSE 5.8 mph - N/A   Unknown
8:33 AM 24.8 °F 19.1 °F 24.8 °F 100% 30.03 in 10.0 mi SSE 4.6 mph - N/A   Clear
8:53 AM 26.6 °F 22.6 °F 26.6 °F 100% 30.03 in 10.0 mi South 3.5 mph - N/A   Clear
9:13 AM 30.2 °F 25.4 °F 28.4 °F 93% 30.03 in 10.0 mi SSW 4.6 mph - N/A   Clear
9:33 AM 32.0 °F 26.4 °F 30.2 °F 93% 30.04 in 10.0 mi WSW 5.8 mph - N/A   Clear
9:53 AM 33.8 °F 28.6 °F 30.2 °F 87% 30.04 in 10.0 mi West 5.8 mph - N/A   Clear
10:13 AM 35.6 °F 30.7 °F 28.4 °F 75% 30.04 in 10.0 mi West 5.8 mph - N/A   Clear
10:33 AM 35.6 °F 31.7 °F 28.4 °F 75% 30.04 in 10.0 mi WSW 4.6 mph - N/A   Clear
10:53 AM 39.2 °F 37.0 °F 30.2 °F 70% 30.03 in 10.0 mi SW 3.5 mph - N/A   Clear
11:13 AM 41.0 °F 38.0 °F 30.2 °F 65% 30.02 in 10.0 mi WSW 4.6 mph - N/A   Clear
11:33 AM 42.8 °F 39.3 °F 30.2 °F 61% 30.02 in 10.0 mi SW 5.8 mph - N/A   Clear
11:53 AM 42.8 °F 38.6 °F 28.4 °F 57% 30.02 in 10.0 mi WSW 6.9 mph - N/A   Clear
12:13 PM 44.6 °F 40.2 °F 28.4 °F 53% 30.01 in 10.0 mi WSW 8.1 mph - N/A   Clear
12:34 PM 44.6 °F 41.4 °F 28.4 °F 53% 30.02 in 10.0 mi WSW 5.8 mph - N/A   Scattered Clouds
12:53 PM 46.4 °F 41.5 °F 26.6 °F 46% 30.01 in 10.0 mi West 10.4 mph 17.3 mph N/A   Scattered Clouds
1:13 PM 48.2 °F - 21.2 °F 34% 29.99 in 10.0 mi West 11.5 mph 20.7 mph N/A   Scattered Clouds
1:34 PM 48.2 °F - 23.0 °F 37% 29.98 in 10.0 mi WSW 11.5 mph 18.4 mph N/A   Scattered Clouds
1:53 PM 48.2 °F - 19.4 °F 32% 29.97 in 10.0 mi West 13.8 mph 23.0 mph N/A   Scattered Clouds
2:13 PM 50.0 °F - 19.4 °F 30% 29.96 in 10.0 mi West 12.7 mph - N/A   Mostly Cloudy
2:34 PM 50.0 °F - 19.4 °F 30% 29.96 in 10.0 mi West 12.7 mph 19.6 mph N/A   Mostly Cloudy
2:53 PM 48.2 °F - 19.4 °F 32% 29.94 in 10.0 mi West 10.4 mph - N/A   Overcast
3:13 PM 48.2 °F - 19.4 °F 32% 29.94 in 10.0 mi West 12.7 mph - N/A   Overcast
3:34 PM 48.2 °F - 19.4 °F 32% 29.94 in 10.0 mi WSW 12.7 mph - N/A   Overcast
3:53 PM 48.2 °F - 19.4 °F 32% 29.92 in 10.0 mi WSW 9.2 mph - N/A   Overcast
4:13 PM 48.2 °F - 21.2 °F 34% 29.92 in 10.0 mi West 11.5 mph - N/A   Mostly Cloudy
4:34 PM 46.4 °F 42.9 °F 26.6 °F 46% 29.91 in 10.0 mi SW 6.9 mph - N/A   Overcast
4:53 PM 44.6 °F 42.2 °F 28.4 °F 53% 29.89 in 10.0 mi SW 4.6 mph - N/A   Mostly Cloudy
5:13 PM 46.4 °F 44.3 °F 26.6 °F 46% 29.88 in 10.0 mi SE 4.6 mph - N/A   Scattered Clouds
5:34 PM 46.4 °F 42.9 °F 26.6 °F 46% 29.87 in 10.0 mi SE 6.9 mph - N/A   Clear
5:53 PM 46.4 °F 42.9 °F 26.6 °F 46% 29.86 in 10.0 mi SE 6.9 mph - N/A   Scattered Clouds
6:13 PM 46.4 °F 42.4 °F 24.8 °F 43% 29.85 in 10.0 mi SE 8.1 mph - N/A   Scattered Clouds
6:33 PM 46.4 °F 42.4 °F 26.6 °F 46% 29.84 in 10.0 mi ESE 8.1 mph - N/A   Mostly Cloudy
6:53 PM 46.4 °F 41.9 °F 26.6 °F 46% 29.83 in 10.0 mi ESE 9.2 mph - N/A   Overcast
7:13 PM 46.4 °F 42.9 °F 26.6 °F 46% 29.83 in 10.0 mi ESE 6.9 mph - N/A   Overcast
7:33 PM 46.4 °F 41.9 °F 26.6 °F 46% 29.82 in 10.0 mi East 9.2 mph - N/A   Overcast
7:53 PM 46.4 °F 42.4 °F 26.6 °F 46% 29.81 in 10.0 mi East 8.1 mph - N/A   Overcast
8:13 PM 46.4 °F 41.9 °F 26.6 °F 46% 29.82 in 10.0 mi East 9.2 mph - N/A   Overcast
8:33 PM 46.4 °F 42.9 °F 26.6 °F 46% 29.82 in 10.0 mi East 6.9 mph - N/A   Overcast
8:53 PM 44.6 °F 39.2 °F 28.4 °F 53% 29.82 in 10.0 mi ENE 10.4 mph - N/A   Overcast
9:13 PM 44.6 °F 40.7 °F 26.6 °F 49% 29.83 in 10.0 mi East 6.9 mph - N/A   Overcast
9:33 PM 44.6 °F - 30.2 °F 57% 29.82 in 10.0 mi Calm Calm - N/A   Light Drizzle
9:53 PM 42.8 °F 36.6 °F 32.0 °F 66% 29.81 in 10.0 mi East 11.5 mph - N/A   Light Drizzle
10:13 PM 42.8 °F 37.5 °F 33.8 °F 70% 29.83 in 10.0 mi ENE 9.2 mph - N/A   Light Drizzle
10:33 PM 41.0 °F 34.3 °F 33.8 °F 76% 29.83 in 10.0 mi ENE 11.5 mph - N/A Rain Light Rain
10:53 PM 39.2 °F 31.2 °F 33.8 °F 81% 29.81 in 10.0 mi East 13.8 mph - N/A   Light Drizzle
11:14 PM 39.2 °F 31.6 °F 33.8 °F 81% 29.83 in 10.0 mi ENE 12.7 mph 25.3 mph N/A Rain Light Rain
11:33 PM 39.2 °F 31.6 °F 33.8 °F 81% 29.84 in 10.0 mi ENE 12.7 mph 17.3 mph N/A Rain Light Rain
11:53 PM 39.2 °F 32.5 °F 33.8 °F 81% 29.84 in 10.0 mi ENE 10.4 mph - N/A Rain Light Rain